Location: Unspecified
(0.0000°N, 0.0000°E)
Time: 07:30:13
(UTC+00:00)

ISS - Pass Details

Date: 30 April 2017
Orbit: 401 x 409 km, 51.6° (Epoch: 29 April)

Event Time Altitude Azimuth Distance (km) Brightness Sun altitude
Exits shadow 04:36:48 17° 339° (NNW) 1,117 -1.7 -19.4°
Drops below altitude 10° 04:38:01 10° 358° (N) 1,449 -0.9 -19.1°
Sets 04:40:24 0° 14° (NNE) 2,303 0.4 -18.6°
